Temperature
16 18 18 18 19 19 19 18 18 19 18 17 18 19 20 20 19 19 19 19 18 17 17 16 17 17 16 16 15 15 14 13 12 12 11 11 10 10 10 10 10 10 9 9
16 17 19 19 18 17 18 18 18 19 17 17 18 18 20 20 19 19 19 19 18 17 16 16 17 16 16 16 15 15 14 13 13 12 11 11 11 10 10 10 10 10 9 9
17 18 18 17 16 17 17 17 18 18 18 17 16 18 20 20 19 18 17 17 17 17 16 16 16 16 16 15 15 14 14 13 12 12 11 11 10 10 10 10 10 10 9 9
17 17 16 16 17 17 17 17 17 17 17 18 17 17 19 20 20 19 18 17 17 16 15 14 15 16 16 15 15 14 14 13 12 12 11 11 11 10 10 10 10 10 9 9
17 17 16 16 17 17 17 17 16 16 16 17 17 17 19 20 19 20 20 18 16 15 14 14 15 15 15 15 14 14 13 13 12 12 11 11 11 10 10 10 10 10 9 9
17 16 17 17 17 17 16 15 15 15 16 16 17 17 18 20 20 20 20 18 16 14 13 13 13 14 14 14 13 13 13 12 12 12 11 11 11 11 10 10 10 9 9 9
15 15 15 16 15 15 16 16 16 16 16 17 16 16 18 20 20 19 18 17 16 14 13 12 12 13 13 13 13 13 12 12 12 11 11 11 11 10 10 10 10 10 9 9
15 15 15 15 17 16 16 17 16 16 17 17 15 16 19 20 18 17 16 15 14 13 12 12 12 12 13 13 13 13 12 12 12 11 11 11 10 10 10 10 10 9 9 9
16 16 16 15 16 17 16 16 18 17 16 15 17 17 18 19 19 18 17 15 14 13 12 11 11 12 12 13 13 12 12 12 12 11 11 11 10 10 10 10 9 9 9 8
17 16 14 14 14 15 17 17 15 15 15 15 17 17 18 19 20 19 18 17 15 12 12 11 11 12 12 12 12 12 12 12 11 11 11 11 10 10 10 9 9 9 8 8
17 16 13 13 15 15 15 15 16 16 16 16 16 17 19 19 19 18 18 16 15 13 12 12 12 12 12 12 12 12 11 11 11 11 11 10 10 10 9 9 9 8 8 7
17 16 14 14 15 16 16 16 16 16 15 15 16 18 19 18 17 17 16 16 14 14 13 13 12 12 12 12 12 11 11 11 11 11 10 10 10 9 9 9 8 8 7 7
16 15 14 13 13 13 14 16 16 17 16 16 15 17 18 17 17 16 16 16 15 15 14 14 13 13 12 12 12 11 11 11 11 10 10 10 9 9 9 8 8 7 7 7
16 15 15 15 16 15 14 14 15 15 15 16 16 17 18 18 18 18 17 16 16 15 15 14 14 13 13 12 12 11 11 11 11 10 10 9 9 9 8 8 7 7 7 6
15 14 15 16 16 15 15 15 14 15 16 16 17 17 18 18 19 18 17 16 15 14 14 15 15 14 13 13 12 12 11 11 10 10 10 9 9 8 8 7 7 6 6 6
14 14 14 14 14 14 14 15 15 15 16 16 16 16 18 18 18 17 16 16 15 14 15 15 15 14 14 13 13 12 11 11 10 10 9 9 8 8 7 7 6 6 5 5
13 13 13 14 13 12 13 15 15 15 15 16 16 17 18 17 17 16 16 15 15 14 15 15 15 15 14 14 13 12 11 10 10 9 9 8 8 7 7 6 6 5 5 4
13 13 14 13 12 11 15 16 16 15 16 16 16 17 17 17 16 15 15 14 14 14 15 15 15 14 14 13 12 11 10 10 9 9 8 8 7 7 6 6 5 5 4 4
14 13 12 12 12 13 14 13 14 14 15 16 15 16 16 14 13 14 14 14 14 14 14 14 14 14 13 13 12 11 10 9 9 8 8 7 7 6 6 5 5 4 4 3
11 13 12 12 12 12 15 15 13 14 15 17 15 15 15 13 14 16 15 14 14 14 14 14 14 13 13 12 11 10 10 9 8 8 7 7 6 6 5 5 4 4 3 3
10 11 12 12 12 14 15 12 13 14 16 16 15 14 14 13 15 14 14 14 14 14 13 13 13 12 12 11 11 10 9 8 8 7 6 6 5 5 5 4 4 3 3 2
11 11 12 12 12 13 12 11 14 16 15 14 14 13 13 13 13 13 13 13 13 13 13 12 12 12 11 10 10 9 8 7 7 6 6 5 5 4 4 3 3 2 2 1
13 14 14 14 14 15 12 13 15 15 14 14 14 14 14 13 13 13 13 13 12 12 12 12 11 11 10 9 9 8 7 7 6 6 5 5 4 4 3 3 2 2 1 1
11 11 12 12 13 13 12 12 13 14 14 15 15 15 14 14 14 13 13 12 12 12 11 11 10 10 9 8 8 7 6 6 5 5 4 4 4 3 3 2 2 1 1 -0
11 10 11 13 12 11 11 12 13 14 14 14 14 14 14 14 13 13 13 12 12 11 10 10 9 9 8 7 7 6 5 5 4 4 4 3 3 2 2 1 1 0 -0 -1
10 11 12 14 13 13 14 14 14 13 14 14 14 13 13 13 13 13 12 12 11 10 10 9 8 8 7 6 6 5 5 4 4 3 3 3 2 2 1 1 0 -0 -1 -1
Wind_Speed
12 13 18 18 17 13 9 10 12 10 4 6 13 18 19 17 16 17 18 17 16 17 14 11 11 11 11 12 14 15 16 16 14 11 10 9 8 7 5 6 7 7 6 6
12 21 20 15 13 12 12 13 14 10 5 6 13 20 21 19 18 17 18 17 17 16 13 13 13 12 13 14 15 16 17 17 16 13 11 8 8 5 5 6 6 6 6 6
25 15 15 14 13 15 16 16 15 13 9 8 10 15 14 12 12 13 15 16 16 15 16 15 15 14 14 14 15 14 16 17 16 14 10 8 6 5 5 6 5 6 6 6
22 13 13 17 18 18 17 13 13 12 11 9 5 11 12 11 13 12 11 11 12 13 15 15 15 16 15 14 14 14 15 16 15 15 14 15 11 9 8 7 7 7 7 7
16 17 16 19 18 17 11 6 8 9 11 13 11 10 12 9 11 10 7 7 8 10 12 14 15 16 14 14 13 13 15 15 15 15 16 15 12 9 8 8 9 8 7 7
13 10 15 17 12 13 8 6 3 4 7 13 13 11 11 7 8 9 8 7 6 7 10 12 13 13 13 13 13 13 15 15 14 15 15 15 14 12 12 11 10 8 6 6
14 10 7 7 10 10 12 10 6 7 8 9 5 8 11 10 9 11 13 12 8 6 9 12 15 15 15 15 15 14 16 15 15 15 15 14 14 14 14 12 11 9 7 6
21 17 16 12 14 13 18 17 12 7 8 5 5 9 9 9 10 10 11 10 7 6 9 12 15 16 16 16 16 16 17 16 15 15 14 13 13 11 10 11 10 9 7 7
20 16 12 15 11 15 13 16 15 11 7 8 9 8 9 10 8 6 6 6 5 5 8 12 14 15 16 16 17 17 17 16 16 15 14 13 13 11 11 11 9 8 7 6
14 14 10 11 7 9 12 12 8 10 8 10 10 11 8 9 7 6 5 5 3 3 7 11 13 14 14 15 15 16 16 16 15 15 13 11 12 11 11 10 10 9 8 8
16 12 9 12 17 19 13 15 11 11 10 8 8 7 6 8 5 6 6 5 3 3 7 10 11 13 14 14 15 15 15 15 15 15 14 13 12 11 11 10 10 9 8 8
18 13 11 12 8 11 19 20 20 15 12 10 9 8 3 6 6 6 6 5 3 3 6 9 11 13 14 15 15 16 15 15 15 15 14 13 12 12 11 10 10 9 9 8
17 12 12 8 7 7 15 19 22 19 15 15 15 10 3 5 7 7 7 6 4 3 6 8 11 13 14 15 16 16 16 16 15 14 14 13 13 13 12 11 10 9 9 8
18 14 18 19 11 14 16 19 20 21 17 20 22 20 14 12 12 12 10 9 7 5 6 9 11 13 14 15 16 17 17 16 15 15 15 15 14 13 12 11 10 10 9 8
14 17 19 15 9 14 16 21 24 26 26 21 21 22 21 20 18 16 13 11 9 8 8 10 12 12 14 15 16 16 16 16 16 16 15 15 13 12 11 10 10 9 9 8
15 14 17 14 12 13 13 18 23 26 25 27 24 23 20 19 17 16 15 13 12 11 9 10 11 12 14 15 15 16 16 16 16 16 15 13 12 12 11 10 10 9 8 8
17 13 14 14 12 9 16 22 22 21 22 21 24 25 19 17 16 16 14 12 12 11 9 9 10 12 12 14 15 15 15 15 15 15 14 13 13 12 11 10 9 9 9 8
19 17 10 8 11 13 12 10 19 22 22 22 20 19 18 18 15 12 12 12 11 9 8 8 8 9 9 10 12 12 13 14 14 14 13 13 12 11 10 10 9 9 8 8
17 16 9 8 11 11 7 7 12 17 18 21 23 22 17 9 7 10 10 10 9 7 5 5 6 7 8 10 11 12 12 13 13 13 13 12 12 11 10 10 9 7 7 8
11 14 10 9 10 12 10 9 10 10 11 13 18 20 15 9 8 9 4 5 5 4 3 4 6 7 8 9 11 12 12 12 12 12 11 11 10 10 9 8 7 6 7 8
15 13 17 13 12 11 5 8 14 11 8 5 12 15 13 13 10 3 5 5 5 5 5 6 7 7 8 10 11 11 11 11 10 9 9 9 9 8 7 6 6 6 6 7
18 15 16 14 13 11 9 13 14 8 3 4 7 9 11 11 6 5 5 6 6 6 7 7 7 7 8 9 10 10 9 8 9 9 8 8 7 6 5 5 5 6 7 8
16 16 11 13 13 4 15 12 10 4 6 6 6 7 9 9 8 8 7 7 7 7 7 7 8 9 8 8 9 9 9 9 9 9 8 7 6 5 5 5 6 6 6 7
8 5 8 8 9 8 12 10 7 7 7 6 6 7 10 9 9 9 8 8 8 8 8 8 9 9 8 8 7 8 9 9 9 8 6 5 5 4 4 4 5 6 7 7
10 11 10 11 6 6 9 14 12 10 7 6 6 7 9 9 9 10 9 9 9 8 8 8 9 9 9 8 8 8 8 8 7 6 5 4 4 4 5 6 6 8 8 8
10 11 13 12 11 10 11 13 12 11 11 11 9 7 8 9 10 10 9 9 9 9 9 9 9 9 9 9 8 8 7 7 6 5 4 3 3 4 5 6 7 9 12 14
Wind_Direction
186 204 213 213 217 233 237 242 254 261 249 255 270 277 279 279 268 261 259 252 242 235 225 206 198 194 191 188 187 186 183 183 179 177 178 177 178 171 164 165 168 173 174 177
194 219 220 217 214 218 228 244 258 270 249 256 282 281 279 274 266 262 261 255 245 235 214 200 195 190 189 187 185 183 184 182 183 183 179 178 166 160 153 153 157 163 165 165
209 217 205 200 201 214 228 240 253 265 279 255 286 282 270 268 263 262 259 256 250 235 219 202 194 191 188 186 184 182 182 181 182 175 161 144 136 138 154 161 157 159 160 158
221 206 188 202 214 218 235 234 246 258 271 278 279 293 285 280 278 270 265 256 248 233 221 206 194 189 188 184 180 179 177 178 177 173 173 173 177 178 180 170 161 156 158 156
212 201 196 208 214 211 230 212 222 245 260 272 256 268 280 277 275 282 282 273 256 236 219 206 197 189 184 177 175 175 174 176 176 179 181 182 185 177 160 158 158 159 158 159
213 199 211 218 212 204 165 137 150 216 250 261 253 248 276 260 267 291 301 303 279 241 216 204 192 181 176 173 172 172 173 175 176 180 182 185 179 167 160 165 166 168 164 164
205 201 197 187 169 172 187 204 226 233 228 248 207 235 258 265 269 283 294 301 298 245 209 195 184 181 177 175 174 175 175 175 177 180 183 183 178 173 173 174 175 174 174 177
201 208 197 191 196 187 197 208 219 238 247 247 200 239 257 277 284 283 281 287 285 238 204 195 189 185 181 179 178 178 179 177 177 180 180 179 174 175 177 178 177 181 182 180
200 206 188 194 195 188 189 212 229 249 266 266 250 251 276 274 274 283 292 291 278 230 203 196 191 189 185 183 183 183 181 179 179 179 176 175 174 175 173 174 176 178 177 172
197 196 179 179 171 203 209 191 189 215 237 248 251 249 248 255 272 305 320 323 306 217 200 196 193 191 189 187 185 185 185 182 179 178 177 175 176 175 171 172 177 178 177 177
196 186 166 177 198 193 185 194 204 214 229 241 254 243 226 243 271 296 317 326 309 218 199 196 194 192 189 187 186 186 187 183 180 180 178 176 175 174 174 178 181 181 181 185
195 197 192 196 199 218 206 205 203 212 218 228 251 256 210 238 261 275 293 308 302 221 200 196 193 190 189 190 190 190 189 188 185 182 180 179 175 175 179 183 183 184 188 193
179 192 188 188 206 199 212 216 216 224 236 231 237 248 191 229 253 259 271 287 287 234 200 195 194 195 195 194 194 193 193 191 187 182 181 179 179 181 186 186 184 187 192 197
180 195 205 212 207 190 202 208 212 217 229 236 238 247 246 254 263 271 276 280 280 255 217 204 202 201 199 198 197 197 196 193 187 184 184 185 186 187 188 186 186 191 195 202
188 207 214 225 205 185 200 206 208 217 227 238 247 248 252 256 261 268 274 278 273 257 230 215 210 206 202 200 200 199 197 193 188 187 189 191 188 185 185 186 190 193 199 208
194 206 205 211 201 198 210 213 213 220 230 239 250 256 257 261 265 265 265 264 261 254 239 223 214 209 205 202 200 198 196 192 188 190 191 187 183 182 186 189 191 196 204 213
188 188 193 209 196 202 233 224 219 223 228 234 243 250 255 257 254 255 258 257 254 253 242 224 216 211 207 202 198 196 193 187 188 190 188 184 183 185 188 189 194 202 211 219
186 190 193 185 177 219 237 215 219 227 234 232 240 250 252 253 259 261 256 254 251 247 238 223 212 205 199 193 191 188 183 182 185 187 186 183 184 187 188 193 202 210 218 227
194 185 182 186 207 234 238 209 201 212 236 233 234 243 247 248 261 259 245 235 239 240 230 211 193 184 177 176 175 173 174 177 183 186 185 183 184 185 189 198 208 215 224 235
195 194 189 190 208 226 224 189 179 190 242 235 224 233 234 202 234 250 206 195 201 195 173 159 153 155 159 164 164 166 170 176 184 184 181 179 182 186 193 203 212 222 231 243
184 195 204 203 217 235 205 150 154 193 233 204 207 218 211 204 224 198 143 151 153 146 142 143 145 148 153 157 159 163 169 179 177 170 169 172 179 187 195 204 215 226 238 250
184 190 202 206 216 224 164 158 186 211 156 174 191 200 200 203 196 168 164 160 156 147 145 146 142 139 145 155 159 161 167 163 157 157 161 168 176 179 190 206 222 235 245 257
196 196 193 202 214 190 169 189 202 180 182 188 186 185 182 184 189 182 179 173 166 158 152 151 145 138 143 155 161 158 154 151 152 155 161 167 174 184 198 217 233 244 250 257
202 193 188 200 214 199 196 207 209 204 203 194 186 175 175 182 182 179 176 173 168 163 159 154 150 147 149 154 157 151 147 151 154 159 164 171 185 201 215 228 237 245 251 258
180 178 196 212 209 203 218 217 216 210 207 197 189 189 189 181 182 182 179 177 171 163 161 161 159 155 152 151 149 148 151 154 158 163 172 185 203 222 237 244 246 251 254 257
186 185 196 212 199 194 207 208 204 201 205 201 191 189 192 191 186 179 178 173 167 163 160 160 160 155 153 153 150 151 155 160 163 174 189 206 224 239 251 261 267 248 252 264
Height
1508 1509 1507 1506 1508 1509 1511 1513 1513 1512 1513 1516 1510 1505 1500 1499 1499 1497 1495 1495 1495 1495 1498 1499 1501 1504 1506 1508 1510 1513 1516 1520 1524 1527 1531 1534 1537 1539 1541 1543 1544 1545 1546 1546
1505 1501 1499 1503 1507 1510 1512 1513 1511 1509 1512 1513 1507 1500 1493 1491 1490 1489 1488 1487 1488 1489 1491 1492 1495 1498 1501 1503 1506 1509 1512 1516 1520 1524 1527 1531 1534 1536 1538 1540 1541 1542 1543 1543
1491 1491 1497 1503 1507 1509 1509 1509 1508 1509 1508 1509 1509 1495 1486 1483 1484 1483 1482 1481 1481 1482 1484 1486 1488 1492 1495 1498 1501 1504 1508 1512 1516 1520 1524 1527 1530 1533 1535 1537 1538 1539 1540 1540
1488 1491 1496 1498 1500 1502 1504 1504 1507 1509 1510 1504 1507 1500 1482 1478 1477 1476 1475 1475 1475 1476 1478 1480 1482 1486 1490 1493 1497 1501 1504 1508 1512 1516 1520 1523 1526 1529 1531 1533 1535 1536 1537 1537
1482 1486 1491 1492 1493 1498 1498 1502 1507 1508 1507 1506 1502 1502 1481 1474 1472 1468 1469 1470 1470 1471 1472 1474 1477 1481 1485 1489 1493 1497 1501 1505 1509 1513 1516 1520 1524 1526 1529 1531 1532 1533 1534 1535
1477 1484 1485 1485 1490 1495 1501 1505 1508 1508 1505 1505 1494 1497 1480 1468 1466 1464 1465 1466 1466 1466 1467 1469 1472 1476 1480 1485 1489 1493 1497 1501 1505 1509 1513 1517 1520 1522 1525 1527 1529 1530 1531 1531
1479 1482 1483 1484 1490 1496 1497 1499 1505 1504 1502 1493 1491 1494 1476 1462 1463 1464 1464 1463 1463 1462 1463 1465 1467 1471 1475 1480 1485 1489 1493 1497 1502 1506 1510 1513 1517 1520 1522 1524 1526 1527 1528 1528
1470 1474 1476 1478 1478 1484 1488 1489 1495 1498 1491 1485 1494 1487 1467 1460 1462 1462 1462 1460 1459 1459 1459 1461 1464 1468 1472 1477 1481 1485 1490 1494 1498 1502 1506 1510 1513 1516 1519 1521 1522 1524 1525 1525
1455 1463 1467 1472 1473 1476 1483 1485 1481 1487 1490 1492 1479 1472 1465 1458 1457 1458 1458 1457 1456 1456 1456 1458 1461 1465 1469 1473 1478 1482 1486 1491 1495 1499 1503 1506 1509 1512 1515 1517 1519 1520 1521 1522
1444 1456 1465 1471 1474 1474 1473 1476 1486 1488 1490 1487 1475 1471 1464 1455 1453 1454 1454 1454 1454 1454 1454 1456 1459 1462 1467 1471 1475 1480 1484 1488 1492 1496 1499 1503 1506 1509 1511 1514 1515 1516 1517 1518
1441 1451 1466 1468 1465 1466 1474 1477 1474 1475 1475 1477 1473 1464 1452 1451 1452 1453 1453 1453 1452 1452 1453 1454 1457 1460 1464 1468 1472 1476 1480 1484 1488 1492 1496 1499 1502 1505 1507 1510 1511 1513 1513 1514
1436 1442 1454 1458 1459 1458 1459 1460 1465 1471 1472 1471 1467 1459 1447 1451 1451 1452 1452 1451 1451 1450 1451 1453 1455 1458 1461 1464 1468 1472 1476 1480 1484 1488 1492 1495 1498 1501 1503 1505 1507 1508 1509 1510
1433 1440 1452 1460 1463 1462 1459 1456 1456 1458 1460 1462 1465 1456 1447 1449 1449 1450 1450 1449 1449 1449 1449 1451 1452 1454 1457 1460 1464 1468 1472 1476 1480 1484 1487 1490 1493 1496 1499 1501 1503 1504 1505 1505
1425 1429 1433 1435 1433 1441 1450 1453 1454 1456 1456 1453 1451 1448 1444 1444 1444 1445 1446 1447 1447 1447 1447 1447 1449 1451 1453 1456 1459 1463 1467 1471 1475 1479 1482 1485 1488 1491 1494 1496 1498 1499 1500 1500
1422 1425 1425 1425 1430 1434 1438 1442 1447 1447 1443 1444 1439 1441 1439 1439 1440 1441 1442 1443 1443 1443 1443 1443 1444 1446 1448 1451 1454 1458 1461 1465 1469 1473 1477 1480 1484 1487 1489 1491 1493 1494 1495 1495
1418 1421 1424 1430 1432 1434 1435 1435 1437 1439 1438 1437 1436 1434 1432 1434 1436 1437 1438 1438 1438 1438 1438 1439 1440 1441 1443 1445 1448 1451 1455 1459 1463 1467 1471 1475 1479 1481 1484 1486 1488 1488 1489 1489
1414 1418 1423 1426 1432 1437 1433 1426 1428 1430 1429 1430 1431 1427 1427 1429 1431 1432 1432 1433 1432 1432 1433 1434 1435 1436 1438 1440 1443 1446 1449 1453 1457 1461 1466 1470 1473 1476 1479 1481 1482 1483 1483 1483
1407 1413 1416 1422 1433 1437 1415 1413 1416 1420 1420 1422 1422 1420 1421 1423 1425 1426 1427 1427 1427 1427 1428 1429 1431 1432 1434 1436 1439 1442 1445 1448 1452 1456 1460 1464 1467 1471 1473 1475 1476 1477 1477 1477
1402 1408 1416 1421 1421 1415 1413 1413 1413 1416 1414 1412 1414 1415 1417 1420 1422 1420 1420 1421 1422 1423 1424 1426 1427 1428 1430 1432 1435 1438 1441 1444 1447 1451 1454 1458 1462 1465 1467 1469 1470 1471 1471 1470
1403 1403 1410 1415 1416 1413 1401 1402 1406 1412 1410 1403 1406 1408 1411 1417 1418 1414 1415 1416 1418 1419 1421 1423 1424 1426 1428 1430 1432 1435 1438 1440 1443 1447 1451 1454 1457 1460 1462 1464 1465 1465 1465 1464
1401 1402 1402 1405 1406 1396 1394 1400 1405 1410 1400 1396 1398 1401 1405 1410 1409 1411 1412 1413 1415 1417 1419 1420 1422 1424 1426 1428 1430 1433 1435 1438 1441 1444 1448 1450 1453 1456 1457 1459 1459 1459 1458 1457
1385 1391 1395 1397 1399 1397 1393 1398 1396 1391 1391 1393 1394 1396 1400 1403 1405 1407 1409 1411 1413 1415 1417 1419 1420 1422 1424 1426 1429 1431 1433 1436 1439 1442 1444 1447 1449 1451 1453 1453 1453 1453 1452 1450
1372 1373 1376 1380 1380 1379 1383 1384 1385 1387 1389 1390 1392 1394 1396 1399 1402 1404 1407 1409 1411 1413 1415 1417 1419 1421 1423 1425 1427 1429 1432 1434 1437 1439 1442 1444 1446 1447 1447 1448 1447 1447 1445 1443
1371 1373 1374 1376 1376 1377 1379 1380 1381 1384 1385 1387 1390 1392 1394 1396 1399 1401 1404 1407 1409 1411 1413 1415 1417 1419 1421 1423 1425 1428 1430 1432 1434 1437 1439 1440 1441 1442 1442 1442 1441 1440 1438 1436
1361 1368 1368 1368 1371 1374 1374 1375 1377 1380 1382 1385 1387 1389 1391 1394 1396 1399 1401 1404 1406 1409 1411 1413 1415 1417 1419 1421 1423 1426 1428 1430 1432 1434 1435 1436 1437 1437 1436 1436 1435 1433 1431 1429
1356 1358 1360 1359 1363 1365 1367 1369 1373 1375 1378 1381 1384 1386 1388 1391 1393 1396 1398 1401 1403 1406 1408 1410 1413 1415 1417 1419 1421 1423 1425 1427 1429 1430 1431 1432 1432 1431 1430 1429 1427 1425 1424 1421